This is the latest recevied weather packets stored in our database for station/object WC4PEM-1. If no packets are shown the sender has not sent any weather packets the latest 10 day(s).
| Time | Temp. | Humidity | Pressure | Rain* | Wind** | Luminosity | Snow |
|---|---|---|---|---|---|---|---|
| 1777580617 | 32.78° C | 43% | 1009.2 hPa | 0 mm | - | 731 W/m² | - |
| 1777580317 | 32.78° C | 45% | 1009.2 hPa | 0 mm | - | 737 W/m² | - |
| 1777580017 | 32.78° C | 44% | 1009.3 hPa | 0 mm | - | 765 W/m² | - |
| 1777579717 | 32.78° C | 45% | 1009.4 hPa | 0 mm | - | 758 W/m² | - |
| 1777579417 | 32.78° C | 44% | 1009.4 hPa | 0 mm | - | 775 W/m² | - |
| 1777579117 | 32.78° C | 44% | 1009.3 hPa | 0 mm | - | 789 W/m² | - |
| 1777578817 | 32.78° C | 46% | 1009.3 hPa | 0 mm | - | 837 W/m² | - |
| 1777578600 | 32.22° C | 46% | 1009.3 hPa | 0 mm | - | 816 W/m² | - |
| 1777578517 | 32.22° C | 46% | 1009.3 hPa | 0 mm | - | 816 W/m² | - |
| 1777578319 | 32.22° C | 46% | 1009.2 hPa | 0 mm | - | 840 W/m² | - |
| 1777578217 | 32.22° C | 46% | 1009.2 hPa | 0 mm | - | 840 W/m² | - |
| 1777578007 | 31.67° C | 45% | 1009.3 hPa | 0 mm | - | 165 W/m² | - |
| 1777577917 | 31.67° C | 45% | 1009.3 hPa | 0 mm | - | 165 W/m² | - |
| 1777577617 | 31.67° C | 46% | 1009.3 hPa | 0 mm | - | 902 W/m² | - |
| 1777577317 | 32.22° C | 44% | 1009.4 hPa | 0 mm | - | 227 W/m² | - |
| 1777577079 | 32.22° C | 45% | 1009.4 hPa | 0 mm | - | 886 W/m² | - |
| 1777577017 | 32.22° C | 45% | 1009.4 hPa | 0 mm | - | 886 W/m² | - |
| 1777576906 | 32.78° C | 43% | 1009.8 hPa | 0 mm | - | 951 W/m² | - |
| 1777576717 | 32.22° C | 45% | 1009.4 hPa | 0 mm | - | 262 W/m² | - |
| 1777576417 | 32.22° C | 46% | 1009.6 hPa | 0 mm | - | 160 W/m² | - |
| 1777576117 | 32.22° C | 44% | 1009.6 hPa | 0 mm | - | 911 W/m² | - |
| 1777575817 | 32.78° C | 43% | 1009.8 hPa | 0 mm | - | 951 W/m² | - |
| 1777575517 | 32.78° C | 43% | 1009.9 hPa | 0 mm | - | 933 W/m² | - |
| 1777575217 | 32.78° C | 45% | 1009.9 hPa | 0 mm | - | 969 W/m² | - |
| 1777574917 | 33.33° C | 43% | 1010 hPa | 0 mm | - | 169 W/m² | - |
* Rain latest hour (hover to see other rain measurements)
** Current wind speed in m/s (hover to see current wind gust speed)